Overview Statistics Trail Chart Weather Telemetry Raw packets
 

This is the latest recevied weather packets stored in our database for station/object N9BLE. If no packets are shown the sender has not sent any weather packets the latest 10 day(s).

<< 21 22 23 24 25 26 27 >>
Time Temp. Humidity Pressure Rain* Wind** Luminosity Snow
1777896302 8.89° C 85% 1007.4 hPa 0 mm - 71 W/m² -
1777896001 8.33° C 86% 1007.4 hPa 0 mm - 37 W/m² -
1777895698 7.78° C 86% 1007.6 hPa 0 mm - 39 W/m² -
1777895395 7.22° C 86% 1007.6 hPa 0 mm - 25 W/m² -
1777895093 7.22° C 86% 1007.7 hPa 0 mm - 24 W/m² -
1777894789 7.22° C 86% 1007.7 hPa 0 mm - 22 W/m² -
1777894486 6.67° C 86% 1007.6 hPa 0 mm - 21 W/m² -
1777894184 6.67° C 86% 1007.6 hPa 0 mm - 19 W/m² -
1777893881 6.67° C 86% 1007.6 hPa 0 mm - 17 W/m² -
1777893577 6.67° C 87% 1007.5 hPa 0 mm - 15 W/m² -
1777893273 6.67° C 86% 1007.5 hPa 0 mm - 13 W/m² -
1777892970 6.11° C 87% 1007.5 hPa 0 mm - 11 W/m² -
1777892667 6.11° C 87% 1007.5 hPa 0 mm - 9 W/m² -
1777892362 6.11° C 87% 1007.5 hPa 0 mm - 6 W/m² -
1777892059 6.11° C 87% 1007.5 hPa 0 mm - 4 W/m² -
1777891756 6.11° C 87% 1007.5 hPa 0 mm - 3 W/m² -
1777891453 5.56° C 87% 1007.5 hPa 0 mm - 1 W/m² -
1777891148 6.11° C 87% 1007.6 hPa 0 mm - 1 W/m² -
1777890843 6.11° C 86% 1007.7 hPa 0 mm - 0 W/m² -
1777890539 6.11° C 85% 1007.8 hPa 0 mm - 0 W/m² -
1777890235 6.67° C 85% 1007.7 hPa 0 mm - 0 W/m² -
1777889931 6.67° C 85% 1007.9 hPa 0 mm - 0 W/m² -
1777889629 6.67° C 84% 1007.7 hPa 0 mm - 0 W/m² -
1777889326 6.67° C 83% 1007.9 hPa 0 mm - 0 W/m² -
1777889024 7.22° C 82% 1007.8 hPa 0 mm - 0 W/m² -

* Rain latest hour (hover to see other rain measurements)
** Current wind speed in m/s (hover to see current wind gust speed)